Regional Weather Roundup
Issued by NWS

Home | Current Version | Previous Version | Text Only | Print | Product List | Glossary Off
Versions: 1 2 3 4 5 6 7 8 9 10 11 12 13 14 15 16 17 18 19 20 21 22 23 24 25 26 27 28 29 30 31 32 33 34 35 36 37 38 39 40 41 42 43 44 45 46 47 48 49 50

000
ASUS43 KLOT 220658
RWRIL

ILLINOIS REGIONAL WEATHER ROUNDUP
NATIONAL WEATHER SERVICE CHICAGO/ROMEOVILLE IL
100 AM CST WED FEB 22 2017

NOTE: "FAIR" INDICATES FEW OR NO CLOUDS BELOW 12,000 FEET WITH NO
SIGNIFICANT WEATHER AND/OR OBSTRUCTIONS TO VISIBILITY.

* THESE STATIONS ARE NOT UNDER NWS QUALITY CONTROL. THEY ALSO MAY NOT
  REPORT WEATHER SUCH AS PRECIPITATION OR FOG.

ILZ001-002-007-009-015-016-024-220800-
NORTHWEST ILLINOIS

CITY           SKY/WX    TMP DP  RH WIND       PRES   REMARKS
MOLINE         CLEAR     46  43  87 S3        29.83S FOG
$$

ILZ003-004-008-010-011-017-018-220800-
NORTH CENTRAL ILLINOIS

CITY           SKY/WX    TMP DP  RH WIND       PRES   REMARKS
ROCKFORD       FOG       47  43  86 S3        29.85F VSB 3/4
$$

ILZ005-006-012>014-019>023-220800-
NORTHEAST ILLINOIS

CITY           SKY/WX    TMP DP  RH WIND       PRES   REMARKS
CHICAGO-OHARE  MOCLDY    56  52  86 SW5       29.84S
CHICAGO-MIDWAY NOT AVBL
AURORA         FOG       46  44  93 CALM      29.86R VSB 1/4
WAUKEGAN       PTCLDY    47  47 100 SW7       29.83S FOG
DUPAGE AIRPORT FOG       45  43  93 S3        29.84F VSB 1
WHEELING       NOT AVBL
NORTHERLY ISL    N/A     56  52  86 S5          N/A
$$

LMZ740>746-220800-
SOUTHERN LAKE MICHIGAN

STATION/POSITION SKY/WX   TEMP    WIND        PRES    VSBY  WAVE
                          AIR SEA DIR/SP/G                  HT/PER
                          (F)     (DEG/KT/KT) (MB)    (MI)  (FT/S)
HARRISON CRIB              58     200/ 12/ 13   N/A
BURNHAM HARBOR             56     230/  3/  6   N/A
CALUMET HARBOR             53     200/  3/  4 1010.4F
BURNS HARBOR               51     200/  6/  7 1011.9S
MICHIGAN CITY              53     170/  4/  6   N/A
$$

ILZ025>027-034>036-040-047-049-050-058-095>099-220800-
WEST-CENTRAL ILLINOIS

CITY           SKY/WX    TMP DP  RH WIND       PRES   REMARKS
$$

ILZ028>032-037-038-041>044-048-051>054-059>061-220800-
CENTRAL ILLINOIS

CITY           SKY/WX    TMP DP  RH WIND       PRES   REMARKS
PEORIA         NOT AVBL
SPRINGFIELD    FOG       52  52 100 S5        29.86S VSB 1/4
TAYLORVILLE    NOT AVBL
$$

ILZ033-039-045-046-055>057-062-063-220800-
EAST-CENTRAL ILLINOIS

CITY           SKY/WX    TMP DP  RH WIND       PRES   REMARKS
MATTOON        CLOUDY    49  49 100 S5        29.87F FOG
$$

ILZ079-100>102-220800-
SOUTHWEST ILLINOIS

CITY           SKY/WX    TMP DP  RH WIND       PRES   REMARKS
CAHOKIA*       FOG       50  47  89 CALM      29.87F VSB 1/2
$$

ILZ064>066-069>071-074>076-080>082-084>086-088>090-092>094-220800-
SOUTH-CENTRAL ILLINOIS

CITY           SKY/WX    TMP DP  RH WIND       PRES   REMARKS
CARBONDALE     NOT AVBL
$$

ILZ067-068-072-073-078-083-087-091-220800-
SOUTHEAST ILLINOIS

CITY           SKY/WX    TMP DP  RH WIND       PRES   REMARKS
$$

ABBREVIATIONS USED IN REMARKS
   TC - TEMPERATURE IN CELSIUS
  WCI - WIND CHILL INDEX
   HX - HEAT INDEX
  VSB - VISIBILITY
$$





USA.gov is the U.S. government's official web portal to all federal, state and local government web resources and services.